This demonstration page uses our WeatherBlox Daily Observations layout. Learn more.

Left ArrowRight Arrow

44.8408, -93.29828

Hourly Observations for June 11, 2017

Temp ( °F °C ) Dew Point ( °F °C ) Humidity (%) Winds ( mph kmh ) Pressure ( in mb ) Visibility ( mi km ) Precip ( " mm )
12:53 am 00:53 Mostly Cloudy 79 26.1 56 13.3 45 45 N 7 11 29.66 1004 10 16 0.00 0.00
1:53 am 01:53 Partly Cloudy 78 25.6 55 12.8 45 45 NE 6 9 29.66 1005 10 16 0.00 0.00
2:53 am 02:53 Partly Cloudy 76 24.4 56 13.3 50 50 ENE 10 17 29.66 1004 10 16 0.00 0.00
3:53 am 03:53 Partly Cloudy 75 23.9 56 13.3 52 52 E 8 13 29.67 1005 10 16 0.00 0.00
4:53 am 04:53 Mostly Cloudy 74 23.3 53 11.7 48 48 E 9 15 29.68 1005 10 16 0.00 0.00
5:53 am 05:53 Mostly Cloudy 75 23.9 50 10 41 41 E 10 17 29.70 1006 10 16 0.00 0.00
6:53 am 06:53 Mostly Cloudy 75 23.9 48 8.9 39 39 E 10 17 29.71 1006 10 16 0.00 0.00
7:53 am 07:53 Cloudy 75 23.9 50 10 41 41 ESE 13 20 29.67 1005 10 16 0.00 0.00
8:39 am 08:39 Cloudy with Nearby Thunderstorms 75 23.9 54 12.2 48 48 ESE 17 28 29.65 1004 10 16 0.00 0.00
8:47 am 08:47 Cloudy with Thunderstorms 75 24 54 12 47 47 NW 35 56 29.80 1009 10 16 0.00 0.00
8:53 am 08:53 Cloudy with Strong Thunderstorms 63 17.2 59 15 87 87 NW 29 46 29.83 1010 1 1 0.12 3.05
8:56 am 08:56 Mostly Cloudy with Strong Thunderstorms 64 17.8 60 15.6 87 87 VRB 6 9 29.80 1009 1 1 0.26 6.60
9:06 am 09:06 Cloudy with Strong Thunderstorms 63 17.2 60 15.6 90 90 W 16 26 29.83 1010 1 2 0.93 23.62
9:25 am 09:25 Cloudy with Thunderstorms 62 16.7 61 16.1 96 96 Calm 29.80 1009 2 2 1.31 33.27
9:31 am 09:31 Cloudy with Thunderstorms 62 16.7 60 15.6 93 93 SSW 7 11 29.77 1008 3 4 1.35 34.29
9:37 am 09:37 Cloudy with Thunderstorms 62 16.7 60 15.6 93 93 Calm 29.77 1008 3 5 1.37 34.80
9:53 am 09:53 Cloudy with Thunderstorms 62 16.7 60 15.6 93 93 W 3 6 29.75 1007 10 16 1.39 35.31
10:01 am 10:01 Cloudy with Nearby Thunderstorms 63 17.2 60 15.6 90 90 WNW 5 7 29.74 1007 10 16 0.00 0.03
10:09 am 10:09 Cloudy with Thunderstorms 63 17.2 60 15.6 90 90 W 7 11 29.77 1008 10 16 0.00 0.03
10:28 am 10:28 Cloudy with Thunderstorms 63 17.2 60 15.6 90 90 N 12 19 29.83 1010 9 14 0.02 0.51
10:33 am 10:33 Cloudy with Thunderstorms 62 16.7 60 15.6 93 93 NNE 12 19 29.80 1009 7 11 0.03 0.76
10:45 am 10:45 Cloudy with Thunderstorms 62 16.7 60 15.6 93 93 NNE 7 11 29.77 1008 6 10 0.08 2.03
10:53 am 10:53 Cloudy with Strong Thunderstorms 62 16.7 59 15 90 90 VRB 7 11 29.74 1007 5 8 0.13 3.30
11:10 am 11:10 Cloudy with Light Rain 62 16.7 59 15 90 90 E 9 15 29.74 1007 9 14 0.04 1.02
11:53 am 11:53 Cloudy 64 17.8 60 15.6 87 87 E 7 11 29.73 1007 10 16 0.04 1.02
12:16 pm 12:16 Cloudy 65 18.3 60 15.6 84 84 E 9 15 29.74 1007 10 16 0.00 0.00
12:53 pm 12:53 Cloudy 66 18.9 61 16.1 84 84 SE 8 13 29.73 1007 10 16 0.00 0.00
1:01 pm 13:01 Cloudy 66 18.9 62 16.7 87 87 SSE 7 11 29.74 1007 10 16 0.00 0.00
1:24 pm 13:24 Cloudy 68 20 63 17.2 84 84 VRB 7 11 29.74 1007 10 16 0.00 0.00
1:53 pm 13:53 Cloudy 71 21.7 64 17.8 79 79 VRB 6 9 29.70 1006 10 16 0.00 0.00
2:53 pm 14:53 Cloudy 73 22.8 65 18.3 76 76 E 5 7 29.70 1006 10 16 0.00 0.00
3:53 pm 15:53 Cloudy 73 22.8 66 18.9 79 79 E 8 13 29.71 1006 10 16 0.00 0.00
4:53 pm 16:53 Cloudy 73 22.8 67 19.4 81 81 ESE 13 20 29.68 1005 10 16 0.00 0.03
5:53 pm 17:53 Cloudy 73 22.8 67 19.4 81 81 N 8 13 29.69 1005 10 16 0.00 0.00
6:20 pm 18:20 Cloudy with Nearby Thunderstorms 72 22.2 68 20 87 87 N 9 15 29.68 1005 10 16 0.13 3.30
6:36 pm 18:36 Mostly Cloudy with Light Rain 73 22.8 69 20.6 87 87 NE 12 19 29.65 1004 4 6 0.14 3.56
6:53 pm 18:53 Mostly Cloudy 74 23.3 69 20.6 85 85 VRB 6 9 29.66 1004 10 16 0.14 3.56
7:53 pm 19:53 Partly Cloudy 73 22.8 68 20 84 84 VRB 5 7 29.66 1004 10 16 0.00 0.00
8:14 pm 20:14 Mostly Cloudy 73 22.8 69 20.6 87 87 N 8 13 29.65 1004 9 14 0.00 0.00
8:53 pm 20:53 Cloudy 72 22.2 67 19.4 84 84 NNE 6 9 29.70 1006 10 16 0.00 0.00
9:53 pm 21:53 Cloudy 71 21.7 66 18.9 84 84 VRB 3 6 29.73 1007 10 16 0.00 0.00
9:58 pm 21:58 Cloudy 72 22.2 66 18.9 82 82 NNE 3 6 29.71 1006 10 16 0.00 0.00
10:53 pm 22:53 Cloudy 71 21.7 66 18.9 84 84 Calm 29.75 1008 10 16 0.00 0.00
11:48 pm 23:48 Cloudy 72 22 66 19 83 83 Calm 29.74 1007 10 16 0.00 0.00
11:53 pm 23:53 Cloudy 70 21.1 66 18.9 87 87 Calm 29.77 1008 10 16 0.00 0.00

Powered by AerisWeather